{"data":{"norad_id":22988,"epoch":"2026-07-11T15:22:25.455360Z","epoch_age_seconds":6133450,"freshness":"OLD","line1":"1 22988U 94009A   26192.64057240 -.00000002  00000+0  00000+0 0  9990","line2":"2 22988  17.6619  27.4499 0001626 196.6248 164.5715  0.98720423 33197","mean_motion":0.98720423,"eccentricity":0.0001626,"inclination_deg":17.6619,"raan_deg":27.4499,"arg_perigee_deg":196.6248,"mean_anomaly_deg":164.5715,"bstar":0,"rev_number":3319,"period_min":1458.664738501,"perigee_km":36220.25583823,"apogee_km":36234.111088445,"semimajor_km":42605.320463337,"source":"CELESTRAK","updated_at":"2026-07-13T09:00:38.855922Z"}}